Regional Weather Roundup
Issued by NWS Jackson, KY

Home | Current Version | Previous Version | Graphics & Text | Print | Product List | Glossary Off
Versions: 1 2 3 4 5 6 7 8 9 10 11 12 13 14 15 16 17 18 19 20 21 22 23 24 25 26 27 28 29 30 31 32 33 34 35 36 37 38 39 40 41 42 43 44 45 46 47 48 49 50

000
ASUS43 KJKL 222210
RWRJKL

EAST KENTUCKY HOURLY WEATHER ROUNDUP
NATIONAL WEATHER SERVICE JACKSON KY
500 PM EST WED FEB 22 2017

NOTE: "FAIR" INDICATES FEW OR NO CLOUDS BELOW 12,000 FEET WITH
NO SIGNIFICANT WEATHER AND/OR OBSTRUCTIONS TO VISIBILITY.

* THESE REPORTS ARE NOT UNDER NWS QUALITY CONTROL AND MAY NOT
  REPORT WEATHER SUCH AS PRECIPITATION AND FOG.

KYZ079-080-083-085-087-088-110-112-115-119-120-222300
...EASTERN KENTUCKY...

CITY           SKY/WX    TMP DP  RH WIND       PRES   REMARKS
JACKSON        CLOUDY    60  55  83 VRB3      29.87F
LONDON         CLOUDY    63  54  72 S5        29.87F
SOMERSET*      MOSUNNY   64  54  68 S6        29.87F
MONTICELLO*    MOSUNNY   67  57  70 E8        29.87S
WILLIAMSBURG*  MOCLDY    63  57  82 SE6       29.88S
MIDDLESBORO*   CLOUDY    59  55  86 CALM      29.91R
HARLAN APT*    PTCLDY    59  52  77 CALM      29.90S
PIKE CO APT*   CLOUDY    59  57  94 CALM      29.89S
BIG SANDY APT* CLOUDY    59  57  92 CALM      29.88F
MOREHEAD APT*  CLOUDY    64  55  72 SE6       29.86F
ASHLAND*       CLOUDY    59  55  88 SE7       29.84F
$$

KYZ035-036-041-042-044-050-067-078-099-222300
...CENTRAL KENTUCKY...

CITY           SKY/WX    TMP DP  RH WIND       PRES   REMARKS
MT STERLING*   MOSUNNY   64  57  77 SW9       29.85F
FLEMING/MASON* CLOUDY    62  58  86 SE6       29.84F
DANVILLE*      MOSUNNY   68  55  64 SW8       29.85S
LEXINGTON      CLOUDY    67  55  65 S8        29.83F
FRANKFORT      PTSUNNY   69  55  60 S9        29.80F
LOUISVILLE     PTSUNNY   70  54  56 S13       29.80S
LEBANON*       MOCLDY    66  57  72 S8        29.84R
GLASGOW*       CLOUDY    69  56  63 SW8       29.83S
BOWLING GREEN  PTSUNNY   70  56  61 S12       29.83R
$$

KYZ091>093-OHZ055-061-077-WVZ005-015-034-035-042-222300
...SOUTHERN OHIO/WEST VIRGINIA...

CITY           SKY/WX    TMP DP  RH WIND       PRES   REMARKS
COVINGTON      CLOUDY    65  57  75 S6        29.80F
COLUMBUS       CLOUDY    60  55  83 S10       29.82F
DAYTON         CLOUDY    61  55  81 S9        29.80F
WILMINGTON     CLOUDY    59  56  89 S7        29.81F FOG
HUNTINGTON     CLOUDY    59  54  83 S5        29.86F
CHARLESTON     CLOUDY    59  54  83 SW5       29.87F
PINEVILLE*     CLOUDY    58  53  82 MISG      29.96R
BECKLEY        CLOUDY    54  52  93 CALM      29.92S
BLUEFIELD      CLOUDY    53  51  93 S3        29.94S
LOGAN CO APT*  CLOUDY    57  55  94 CALM      29.89F
$$

VAZ002-007-008-TNZ017-027-036-066-071-222300
...SOUTHWEST VIRGINIA/EAST TENNESSEE...

CITY           SKY/WX    TMP DP  RH WIND       PRES   REMARKS
WISE*          CLOUDY    57  55  94 CALM      29.93S
JONESVILLE*    MOCLDY    59  54  82 CALM      29.93R
ABINGDON*      CLOUDY    56  55  97 SE6       29.92F
BRISTOL        CLOUDY    57  56  96 E5        29.91S FOG
MORRISTOWN*    MOCLDY    59  57  94 E5        29.89S
SEVIERVILLE*   CLOUDY    57  55  94 CALM      29.88R
KNOXVILLE      CLOUDY    60  55  83 N8        29.87S
LAFOLLETTE*    CLOUDY    59  55  88 CALM      29.92S
OAK RIDGE      CLOUDY    61  55  81 VRB3      29.90R
CROSSVILLE     CLOUDY    62  54  74 CALM      29.89S
NASHVILLE      CLOUDY    68  56  65 S8G16     29.84S
$$

...KEY TO REMARKS...
VSB - VISIBILITY IN MILES
WCI - WIND CHILL INDEX
HX  - HEAT INDEX

$$



USA.gov is the U.S. government's official web portal to all federal, state and local government web resources and services.